• în România
  • Lista ţărilor
  • Pe 7 zile
  • Temperatura apei
  • Hartă satelitară
  • Meteo pe hartă
  • Widget-uri
  • user-avatar
    Intrare

    Meteo pe oră la Bambari

    Astăzi, 25 Februarie, Duminică

    Timp Temperatura Precipitaţii Vânt Presiune Umiditate
    00:00 +28°C° 0 mm 2 m/s 719 mmHg 67%
    01:00 +27°C° 0 mm 2 m/s 719 mmHg 69%
    02:00 +27°C° 0 mm 2 m/s 719 mmHg 71%
    03:00 +27°C° 0 mm 1 m/s 719 mmHg 74%
    04:00 +26°C° 0 mm 1 m/s 719 mmHg 76%
    05:00 +26°C° 0 mm 1 m/s 719 mmHg 75%
    06:00 +27°C° 0 mm 1 m/s 720 mmHg 74%
    07:00 +27°C° 0 mm 1 m/s 721 mmHg 71%
    08:00 +30°C° 0 mm 2 m/s 721 mmHg 60%
    09:00 +34°C° 0 mm 2 m/s 721 mmHg 49%
    10:00 +37°C° 0 mm 2 m/s 721 mmHg 38%
    11:00 +39°C° 0 mm 1 m/s 720 mmHg 33%
    12:00 +42°C° 0 mm 1 m/s 720 mmHg 27%
    13:00 +44°C° 0 mm 1 m/s 719 mmHg 21%
    14:00 +43°C° 0 mm 1 m/s 719 mmHg 22%
    15:00 +42°C° 0 mm 1 m/s 718 mmHg 23%
    16:00 +40°C° 0 mm 1 m/s 717 mmHg 24%
    17:00 +39°C° 0 mm 1 m/s 717 mmHg 26%
    18:00 +37°C° 0 mm 1 m/s 717 mmHg 28%
    19:00 +36°C° 0 mm 1 m/s 717 mmHg 31%
    20:00 +35°C° 0 mm 1 m/s 718 mmHg 32%
    21:00 +34°C° 0 mm 1 m/s 718 mmHg 33%
    22:00 +32°C° 0 mm 0 m/s 718 mmHg 35%
    23:00 +31°C° 0 mm 0 m/s 718 mmHg 36%

    Mâine, 26 Februarie, Luni

    Timp Temperatura Precipitaţii Vânt Presiune Umiditate
    00:00 +31°C° 0 mm 0 m/s 717 mmHg 38%
    01:00 +30°C° 0 mm 0 m/s 717 mmHg 40%
    02:00 +31°C° 0 mm 1 m/s 717 mmHg 42%
    03:00 +31°C° 0 mm 1 m/s 717 mmHg 45%
    04:00 +30°C° 0 mm 1 m/s 717 mmHg 47%
    05:00 +30°C° 0,1 mm 2 m/s 718 mmHg 50%
    06:00 +30°C° 0,1 mm 2 m/s 718 mmHg 53%
    07:00 +30°C° 0,1 mm 2 m/s 719 mmHg 56%
    08:00 +33°C° 0 mm 3 m/s 719 mmHg 50%
    09:00 +35°C° 0 mm 3 m/s 720 mmHg 45%
    10:00 +37°C° 0 mm 3 m/s 720 mmHg 40%
    11:00 +38°C° 0 mm 3 m/s 719 mmHg 36%
    12:00 +40°C° 0 mm 2 m/s 719 mmHg 32%
    13:00 +41°C° 0 mm 2 m/s 718 mmHg 29%
    14:00 +39°C° 0,3 mm 2 m/s 717 mmHg 33%
    15:00 +38°C° 0,3 mm 2 m/s 717 mmHg 37%
    16:00 +36°C° 0,3 mm 3 m/s 716 mmHg 42%
    17:00 +34°C° 1,5 mm 2 m/s 717 mmHg 52%
    18:00 +31°C° 1,5 mm 2 m/s 717 mmHg 61%
    19:00 +29°C° 1,5 mm 1 m/s 717 mmHg 71%
    20:00 +29°C° 1,6 mm 2 m/s 718 mmHg 73%
    21:00 +28°C° 1,6 mm 3 m/s 718 mmHg 74%
    22:00 +28°C° 1,6 mm 4 m/s 719 mmHg 76%
    23:00 +27°C° 0,5 mm 4 m/s 719 mmHg 78%

    Poimâine, 27 Februarie, Marţi

    Timp Temperatura Precipitaţii Vânt Presiune Umiditate
    00:00 +27°C° 0,5 mm 4 m/s 719 mmHg 79%
    01:00 +26°C° 0,5 mm 4 m/s 719 mmHg 81%
    02:00 +26°C° 0,1 mm 4 m/s 719 mmHg 81%
    03:00 +26°C° 0,1 mm 3 m/s 719 mmHg 82%
    04:00 +26°C° 0,1 mm 2 m/s 719 mmHg 82%
    05:00 +26°C° 0 mm 2 m/s 719 mmHg 81%
    06:00 +26°C° 0 mm 2 m/s 720 mmHg 80%
    07:00 +26°C° 0 mm 2 m/s 721 mmHg 78%
    08:00 +28°C° 0 mm 2 m/s 721 mmHg 70%
    09:00 +30°C° 0 mm 2 m/s 722 mmHg 61%
    10:00 +32°C° 0 mm 2 m/s 722 mmHg 52%
    11:00 +34°C° 0 mm 2 m/s 721 mmHg 49%
    12:00 +35°C° 0 mm 3 m/s 720 mmHg 46%
    13:00 +36°C° 0 mm 3 m/s 719 mmHg 43%
    14:00 +36°C° 0 mm 3 m/s 719 mmHg 44%
    15:00 +35°C° 0 mm 3 m/s 718 mmHg 45%
    16:00 +35°C° 0 mm 3 m/s 718 mmHg 47%
    17:00 +34°C° 0,1 mm 3 m/s 718 mmHg 51%
    18:00 +31°C° 0,1 mm 3 m/s 719 mmHg 55%
    19:00 +30°C° 0,1 mm 2 m/s 719 mmHg 59%
    20:00 +30°C° 0,1 mm 2 m/s 719 mmHg 61%
    21:00 +29°C° 0,1 mm 2 m/s 720 mmHg 63%
    22:00 +29°C° 0,1 mm 2 m/s 720 mmHg 65%
    23:00 +28°C° 0,2 mm 3 m/s 720 mmHg 68%

    28 Februarie, Miercuri

    Timp Temperatura Precipitaţii Vânt Presiune Umiditate
    00:00 +28°C° 0,2 mm 3 m/s 720 mmHg 71%
    01:00 +28°C° 0,2 mm 3 m/s 719 mmHg 74%
    02:00 +27°C° 0 mm 3 m/s 719 mmHg 76%
    03:00 +27°C° 0 mm 2 m/s 719 mmHg 77%
    04:00 +27°C° 0 mm 2 m/s 719 mmHg 78%
    05:00 +27°C° 0 mm 2 m/s 719 mmHg 77%
    06:00 +27°C° 0 mm 2 m/s 720 mmHg 76%
    07:00 +27°C° 0 mm 2 m/s 720 mmHg 75%
    08:00 +29°C° 0 mm 2 m/s 721 mmHg 66%
    09:00 +31°C° 0 mm 3 m/s 721 mmHg 58%
    10:00 +34°C° 0 mm 3 m/s 721 mmHg 49%
    11:00 +36°C° 0 mm 3 m/s 720 mmHg 44%
    12:00 +37°C° 0 mm 3 m/s 719 mmHg 39%
    13:00 +39°C° 0 mm 3 m/s 719 mmHg 35%
    14:00 +38°C° 0 mm 2 m/s 718 mmHg 36%
    15:00 +38°C° 0 mm 2 m/s 718 mmHg 36%
    16:00 +37°C° 0 mm 2 m/s 717 mmHg 37%
    17:00 +36°C° 0,1 mm 2 m/s 717 mmHg 41%
    18:00 +35°C° 0,1 mm 2 m/s 718 mmHg 45%
    19:00 +33°C° 0,1 mm 1 m/s 718 mmHg 48%
    20:00 +32°C° 0,1 mm 2 m/s 719 mmHg 51%
    21:00 +32°C° 0,1 mm 2 m/s 719 mmHg 54%
    22:00 +31°C° 0,1 mm 2 m/s 719 mmHg 57%
    23:00 +30°C° 0,1 mm 2 m/s 719 mmHg 60%

    1 Martie, Joi

    Timp Temperatura Precipitaţii Vânt Presiune Umiditate
    00:00 +30°C° 0,1 mm 3 m/s 719 mmHg 62%
    01:00 +29°C° 0,1 mm 3 m/s 718 mmHg 65%
    02:00 +29°C° 0 mm 3 m/s 718 mmHg 68%
    03:00 +28°C° 0 mm 3 m/s 718 mmHg 70%
    04:00 +27°C° 0 mm 3 m/s 718 mmHg 73%
    05:00 +27°C° 0,1 mm 4 m/s 719 mmHg 73%
    06:00 +27°C° 0,1 mm 4 m/s 720 mmHg 73%
    07:00 +27°C° 0,1 mm 4 m/s 720 mmHg 73%
    08:00 +29°C° 0,4 mm 4 m/s 721 mmHg 68%
    09:00 +30°C° 0,4 mm 4 m/s 721 mmHg 64%
    10:00 +31°C° 0,4 mm 3 m/s 722 mmHg 59%
    11:00 +33°C° 0,6 mm 3 m/s 721 mmHg 55%
    12:00 +34°C° 0,6 mm 4 m/s 720 mmHg 52%
    13:00 +35°C° 0,6 mm 4 m/s 719 mmHg 48%
    14:00 +35°C° 0 mm 4 m/s 719 mmHg 47%
    15:00 +35°C° 0 mm 3 m/s 718 mmHg 46%
    16:00 +35°C° 0 mm 3 m/s 718 mmHg 45%
    17:00 +34°C° 0 mm 3 m/s 718 mmHg 50%
    18:00 +33°C° 0 mm 3 m/s 718 mmHg 54%
    19:00 +31°C° 0 mm 2 m/s 718 mmHg 59%
    20:00 +30°C° 0 mm 2 m/s 719 mmHg 60%
    21:00 +30°C° 0 mm 2 m/s 719 mmHg 62%
    22:00 +29°C° 0 mm 2 m/s 719 mmHg 64%
    23:00 +29°C° 0 mm 3 m/s 719 mmHg 66%

    2 Martie, Vineri

    Timp Temperatura Precipitaţii Vânt Presiune Umiditate
    00:00 +28°C° 0 mm 3 m/s 719 mmHg 68%
    01:00 +28°C° 0 mm 4 m/s 718 mmHg 70%
    02:00 +27°C° 0 mm 3 m/s 719 mmHg 71%
    03:00 +27°C° 0 mm 3 m/s 719 mmHg 72%
    04:00 +27°C° 0 mm 2 m/s 719 mmHg 74%
    05:00 +27°C° 0,1 mm 3 m/s 719 mmHg 74%
    06:00 +27°C° 0,1 mm 3 m/s 720 mmHg 74%
    07:00 +27°C° 0,1 mm 3 m/s 720 mmHg 74%
    08:00 +29°C° 0 mm 4 m/s 720 mmHg 67%
    09:00 +30°C° 0 mm 4 m/s 720 mmHg 61%
    10:00 +32°C° 0 mm 4 m/s 721 mmHg 54%
    11:00 +34°C° 0 mm 4 m/s 720 mmHg 50%
    12:00 +35°C° 0 mm 4 m/s 719 mmHg 46%
    13:00 +36°C° 0 mm 4 m/s 718 mmHg 41%
    14:00 +36°C° 0 mm 4 m/s 718 mmHg 40%
    15:00 +37°C° 0 mm 3 m/s 718 mmHg 38%
    16:00 +37°C° 0 mm 3 m/s 717 mmHg 37%
    17:00 +35°C° 0 mm 3 m/s 717 mmHg 41%
    18:00 +34°C° 0 mm 2 m/s 718 mmHg 45%
    19:00 +31°C° 0 mm 2 m/s 718 mmHg 49%
    20:00 +31°C° 0 mm 2 m/s 718 mmHg 52%
    21:00 +30°C° 0 mm 2 m/s 719 mmHg 54%
    22:00 +30°C° 0 mm 3 m/s 719 mmHg 57%
    23:00 +29°C° 0 mm 3 m/s 719 mmHg 59%
    Arată mai mult